Location: ???????????
(55.5758°N, 38.4970°E)
Time: 18:27:39
(UTC+00:00)

Cosmos 2151 Rocket - Pass Details

Date: 15 November 2025
Orbit: 611 x 636 km, 82.5° (Epoch: 14 December)

Event Time Altitude Azimuth Distance (km) Brightness Sun altitude
Exits shadow 02:42:52 - 348° (NNW) 2,882 6.8 -19.1°
Reaches altitude 10° 02:44:57 10° 349° (N) 2,035 6.0 -18.8°
Maximum altitude 02:49:29 82° 77° (ENE) 646 3.6 -18.1°
Drops below altitude 10° 02:53:57 10° 166° (SSE) 2,006 6.4 -17.5°
Sets 02:56:10 0° 168° (SSE) 2,905 7.3 -17.2°
